Location: Canazei
(46.4667°N, 11.7667°E)
Time: 03:35:21
(UTC+00:00)

CREW DRAGON DEMO-1 DEB - Pass Details

Date: 21 April 2021
Orbit: 305 x 309 km, 51.6° (Epoch: 10 May)

Event Time Altitude Azimuth Distance (km) Brightness Sun altitude
Exits shadow 02:42:58 16° 306° (NW) 939 4.6 -14.9°
Maximum altitude 02:44:30 25° 355° (N) 666 4.4 -14.7°
Drops below altitude 10° 02:46:49 10° 56° (NE) 1,201 6.8 -14.4°
Sets 02:48:58 0° 70° (ENE) 2,033 8.2 -14.1°
